Location: Caltech
(34.1382°N, 118.1253°W)
Time: 04:33:37
(UTC-07:00)

ALOS - Visible Passes

Search period start: 02 September 2014 00:00
Search period end: 12 September 2014 00:00
Orbit: 689 x 689 km, 98.0° (Epoch: 01 September)

Date Brightness Start Highest point End Pass type
(mag) Time Alt. Az. Time Alt. Az. Time Alt. Az.
02 Sep 3.5 21:05:30 27° NE 21:05:30 27° NE 21:08:34 10° N visible
02 Sep 4.9 22:44:07 17° WNW 22:44:07 17° WNW 22:45:36 10° NW visible
03 Sep 3.3 21:44:41 39° N 21:44:41 39° N 21:47:39 10° N visible
04 Sep 4.0 20:45:16 18° NE 20:45:16 18° NE 20:47:38 10° NNE visible
04 Sep 4.5 22:23:53 23° NW 22:23:53 23° NW 22:25:57 10° NNW visible
05 Sep 3.4 21:24:27 32° NNE 21:24:27 32° NNE 21:27:15 10° N visible
06 Sep 4.4 20:25:01 11° ENE 20:25:01 11° ENE 20:25:48 10° NE visible
06 Sep 4.0 22:03:38 29° NNW 22:03:38 29° NNW 22:05:58 10° NNW visible
07 Sep 3.8 21:04:13 23° NE 21:04:13 23° NE 21:06:37 10° NNE visible
07 Sep 5.1 22:42:49 14° NW 22:42:49 14° NW 22:43:46 10° NW visible
08 Sep 3.8 21:43:24 30° N 21:43:24 30° N 21:45:45 10° N visible
09 Sep 4.2 20:43:58 16° NE 20:43:58 16° NE 20:45:39 10° NNE visible
09 Sep 4.7 22:22:35 19° NW 22:22:35 19° NW 22:24:04 10° NNW visible
10 Sep 3.9 21:23:10 25° NNE 21:23:10 25° NNE 21:25:19 10° N visible
11 Sep 4.4 22:02:21 22° NNW 22:02:21 22° NNW 22:04:03 10° NNW visible
